Location: Passau
(48.5830°N, 13.4830°E)
Time: 21:13:29
(UTC+02:00)

S-56A Canister/Altair - Pass Details

Date: 25 May 2024
Orbit: 637 x 2489 km, 38.9° (Epoch: 16 June)

Event Time Altitude Azimuth Distance (km) Brightness Sun altitude
Rises 11:42:23 0° 274° (W) 4,931 11.4 58.1°
Reaches altitude 10° 11:46:49 10° 262° (W) 3,582 10.9 58.5°
Maximum altitude 11:53:09 23° 215° (SW) 2,233 10.4 59.1°
Drops below altitude 10° 11:57:59 10° 165° (SSE) 2,641 10.9 59.6°
Sets 12:00:42 0° 150° (SSE) 3,373 11.3 59.8°
